Погода в Глухове

Россия / Калужская область     55°03′03″N   36°02′50″E
В апреле 2022 года жителям России запретили посещать сайт meteo.paraplan.net по решению Генеральной прокуратуры. Аудитория сайта уменьшилась в 10 раз. Владельцы сайта не видят смысла в поддержке погодного сервера в таких условиях. Сайт будет закрыт в октябре.
темп.,
°C
ветер,
м/с
пор.,
м/с
влажн.,
%
обл.,
%
осадки,
мм/ч
давл.,
гПа
погр.,
м
4 октября, вт
вт400:00+8ю51592100 1.4 9991533
03:00+9ююв91882100 1.9 10001552
06:00+8ю51491100 1.4 10011426
09:00+6ю61391100 4.8 10041077
12:00+6ю51292100 1.6 10061173
15:00+8ю51081100 1.8 10071206
18:00+6ююз3790100 0.4 10071072
21:00+5ююз4897100 1.5 10081001
5 октября, ср
ср500:00+6ююз3792100 0.9 10081104
03:00+6юз4794100 1.5 1009810
06:00+6ююз4695100 1.4 10101014
09:00+5зсз3694100 2.1 1012704
12:00+6з4684100 0.2 10131022
15:00+6з4785100 0.3 1015741
18:00+6з4891100 0.1 1016747
21:00+6з3895100 0.3 1017554
6 октября, чт
чт600:00+6з379799 0.1 1017365
03:00+4з259895 0.1 1018113
06:00+6зюз2396100 0.3 1018104
09:00+7ююз2497100 0.3 1018204
12:00+10юз3592100 0.0 1018405
15:00+12зюз358579 0.0 1018606
18:00+10ююз38955 0.0 1018190
21:00+9юз412965 0.0 1017334
7 октября, пт
пт700:00+9юз4129650 0.0 1017319
03:00+9з4129744 0.0 1017384
06:00+10зсз511900 0.0 1019524
09:00+10зсз5119053 0.0 1021624
12:00+10з49811 0.0 1023821
15:00+13зсз586742 0.0 10241190
18:00+9з37840 0.0 1025198
21:00+7зюз39950 0.0 1026202
8 октября, сб
сб800:00+6зюз36960 0.0 1026120
03:00+6зюз25965 0.0 1026114
06:00+5юз369711 0.0 1026129
09:00+8юз388944 0.0 1025253
12:00+13юз47717 0.0 1023670
15:00+14ююз586457 0.0 1021955
18:00+10ююз4108133 0.0 1020289
21:00+9ююз41384100 0.0 1019448